MQT25TB EDDM-GCTS

Flight info

Callsign MQT25TB
Flight time N/A
Altitude 35000
Route MERSI6N MERSI Y100 TRA DCT LUTIX DCT BENOT DCT NEMOS DCT NINTU DCT MEBAK DCT REPSI DCT LERGA DCT MINSO DCT NARAK DCT AGN DCT PIPOR L866 PPN DCT MIRPO DCT DGO DCT NEA DCT ARDID DCT GANSU DCT BEXAL UN866 KONBA
Aircraft A320/M-SDE3FGHIRWY/LB1

Departure

Time 2026-05-05 10:53
Airport Munich Airport (EDDM)

Arrival

Time N/A
Airport Tenerife Sur Airport (GCTS)
Time Latitude Longitude Altitude Speed Heading
2026-05-05 10:18 48.35069 11.77951 1486 ft 0 kts 83°
2026-05-05 10:42 48.35068 11.77940 1485 ft 2 kts 83°
2026-05-05 10:42 48.35065 11.77914 1484 ft 3 kts 95°
2026-05-05 10:42 48.35070 11.77888 1471 ft 3 kts 131°
2026-05-05 10:43 48.35084 11.77871 1471 ft 2 kts 162°
2026-05-05 10:43 48.35090 11.77868 1482 ft 0 kts 165°
2026-05-05 10:46 48.35086 11.77870 1481 ft 4 kts 165°
2026-05-05 10:46 48.35027 11.77875 1482 ft 9 kts 176°
2026-05-05 10:46 48.34970 11.77884 1479 ft 7 kts 173°
2026-05-05 10:46 48.34924 11.77892 1480 ft 8 kts 175°
2026-05-05 10:47 48.34838 11.77881 1485 ft 17 kts 188°
2026-05-05 10:47 48.34727 11.77892 1483 ft 14 kts 172°
2026-05-05 10:47 48.34672 11.77971 1483 ft 11 kts 97°
2026-05-05 10:47 48.34677 11.78072 1485 ft 9 kts 85°
2026-05-05 10:48 48.34683 11.78153 1472 ft 7 kts 82°
2026-05-05 10:48 48.34688 11.78217 1485 ft 6 kts 83°
2026-05-05 10:48 48.34694 11.78296 1485 ft 10 kts 83°
2026-05-05 10:48 48.34705 11.78429 1485 ft 16 kts 83°
2026-05-05 10:49 48.34719 11.78621 1485 ft 21 kts 83°
2026-05-05 10:49 48.34738 11.78866 1475 ft 26 kts 83°
2026-05-05 10:49 48.34752 11.79052 1478 ft 27 kts 84°
2026-05-05 10:49 48.34775 11.79339 1480 ft 27 kts 83°
2026-05-05 10:50 48.34793 11.79586 1482 ft 21 kts 83°
2026-05-05 10:50 48.34810 11.79811 1480 ft 22 kts 83°
2026-05-05 10:50 48.34829 11.80042 1483 ft 20 kts 82°
2026-05-05 10:50 48.34788 11.80202 1485 ft 17 kts 130°
2026-05-05 10:51 48.34690 11.80248 1485 ft 14 kts 174°
2026-05-05 10:51 48.34597 11.80265 1483 ft 12 kts 173°
2026-05-05 10:51 48.34518 11.80277 1473 ft 10 kts 179°
2026-05-05 10:51 48.34469 11.80227 1485 ft 8 kts 240°
2026-05-05 10:52 48.34459 11.80158 1482 ft 6 kts 263°
2026-05-05 10:52 48.34441 11.79933 1485 ft 53 kts 263°
2026-05-05 10:52 48.34372 11.79040 1485 ft 117 kts 262°
2026-05-05 10:52 48.34258 11.77554 1480 ft 167 kts 264°
2026-05-05 10:53 48.34120 11.75731 1974 ft 172 kts 264°
2026-05-05 10:53 48.33975 11.73934 2614 ft 176 kts 263°
2026-05-05 10:53 48.33816 11.72109 3295 ft 176 kts 263°
2026-05-05 10:53 48.33674 11.70262 3782 ft 184 kts 263°
2026-05-05 10:54 48.33524 11.68223 4024 ft 207 kts 263°
2026-05-05 10:54 48.33354 11.65956 4263 ft 230 kts 263°
2026-05-05 10:54 48.33169 11.63473 4697 ft 250 kts 264°
2026-05-05 10:54 48.32978 11.60763 5152 ft 268 kts 264°
2026-05-05 10:55 48.32784 11.57936 5912 ft 275 kts 263°
2026-05-05 10:55 48.32584 11.55056 6747 ft 279 kts 263°
2026-05-05 10:55 48.32378 11.52136 7577 ft 282 kts 263°
2026-05-05 10:55 48.32162 11.49193 8422 ft 285 kts 263°
2026-05-05 10:56 48.31940 11.46218 9274 ft 288 kts 263°
2026-05-05 10:56 48.31713 11.43219 10040 ft 290 kts 262°
2026-05-05 10:56 48.31485 11.40192 10796 ft 293 kts 262°
2026-05-05 10:56 48.31257 11.37143 11588 ft 295 kts 262°
2026-05-05 10:57 48.31001 11.34073 12343 ft 297 kts 256°
2026-05-05 10:57 48.30312 11.31164 13079 ft 297 kts 239°
2026-05-05 10:57 48.29081 11.28682 13685 ft 302 kts 224°
2026-05-05 10:57 48.27325 11.26788 13806 ft 322 kts 205°
2026-05-05 10:58 48.25197 11.25421 13932 ft 343 kts 202°
2026-05-05 10:58 48.22936 11.23996 14129 ft 359 kts 202°
2026-05-05 10:58 48.20613 11.22526 14622 ft 365 kts 202°
2026-05-05 10:58 48.18266 11.21039 15195 ft 368 kts 202°
2026-05-05 10:59 48.15900 11.19537 15782 ft 371 kts 202°
2026-05-05 10:59 48.13526 11.18001 16372 ft 373 kts 205°
2026-05-05 10:59 48.11266 11.16061 16958 ft 376 kts 210°
2026-05-05 10:59 48.09021 11.14017 17577 ft 379 kts 210°
2026-05-05 11:00 48.06762 11.11970 18183 ft 381 kts 210°
2026-05-05 11:00 48.04487 11.09914 18686 ft 383 kts 210°
2026-05-05 11:00 48.02207 11.07819 19180 ft 387 kts 213°
2026-05-05 11:00 48.00136 11.05231 19695 ft 391 kts 224°
2026-05-05 11:01 47.98438 11.02027 20184 ft 397 kts 236°
2026-05-05 11:01 47.97210 10.98311 20646 ft 403 kts 248°
2026-05-05 11:01 47.96433 10.94270 21100 ft 408 kts 253°
2026-05-05 11:01 47.95708 10.90162 21544 ft 410 kts 252°
2026-05-05 11:02 47.94971 10.86036 21995 ft 413 kts 252°
2026-05-05 11:02 47.94219 10.81884 22421 ft 416 kts 252°
2026-05-05 11:02 47.93457 10.77714 22825 ft 418 kts 252°
2026-05-05 11:02 47.92690 10.73520 23221 ft 421 kts 252°
2026-05-05 11:03 47.91956 10.69496 23562 ft 423 kts 252°
2026-05-05 11:03 47.91186 10.65250 23895 ft 425 kts 252°
2026-05-05 11:03 47.90411 10.60989 24233 ft 427 kts 252°
2026-05-05 11:03 47.89630 10.56715 24565 ft 428 kts 252°
2026-05-05 11:04 47.88843 10.52431 24891 ft 430 kts 252°
2026-05-05 11:04 47.88049 10.48130 25217 ft 431 kts 252°
2026-05-05 11:04 47.87254 10.43833 25540 ft 432 kts 252°
2026-05-05 11:04 47.86453 10.39502 25841 ft 434 kts 252°
2026-05-05 11:05 47.85658 10.35155 26136 ft 436 kts 253°
2026-05-05 11:05 47.85157 10.30689 26422 ft 441 kts 262°
2026-05-05 11:05 47.84964 10.26118 26705 ft 443 kts 263°
2026-05-05 11:05 47.84779 10.21530 26979 ft 445 kts 263°
2026-05-05 11:06 47.84590 10.16927 27244 ft 446 kts 263°
2026-05-05 11:06 47.84399 10.12306 27493 ft 448 kts 263°
2026-05-05 11:06 47.84202 10.07669 27737 ft 450 kts 263°
2026-05-05 11:06 47.84002 10.03017 27991 ft 451 kts 263°
2026-05-05 11:07 47.83812 9.98350 28212 ft 453 kts 264°
2026-05-05 11:07 47.83716 9.93776 28424 ft 455 kts 265°
2026-05-05 11:07 47.83702 9.89052 28658 ft 456 kts 266°
2026-05-05 11:07 47.83735 9.84334 28977 ft 456 kts 267°
2026-05-05 11:08 47.83778 9.79682 29281 ft 455 kts 267°
2026-05-05 11:08 47.83810 9.74980 29584 ft 455 kts 266°
2026-05-05 11:08 47.83820 9.70275 29900 ft 454 kts 266°
2026-05-05 11:08 47.83808 9.65588 30176 ft 453 kts 265°
2026-05-05 11:09 47.83598 9.60928 30438 ft 448 kts 257°
2026-05-05 11:09 47.83045 9.56383 30706 ft 446 kts 255°
2026-05-05 11:09 47.82486 9.51841 30978 ft 445 kts 255°
2026-05-05 11:09 47.81936 9.47317 31244 ft 445 kts 255°
2026-05-05 11:10 47.81390 9.42787 31505 ft 444 kts 255°
2026-05-05 11:10 47.80847 9.38278 31770 ft 443 kts 255°
2026-05-05 11:10 47.80302 9.33764 32053 ft 442 kts 255°
2026-05-05 11:10 47.79760 9.29273 32336 ft 441 kts 255°
2026-05-05 11:11 47.79215 9.24790 32610 ft 440 kts 255°
2026-05-05 11:11 47.78667 9.20327 32879 ft 439 kts 255°
2026-05-05 11:11 47.78113 9.15870 33156 ft 437 kts 254°
2026-05-05 11:11 47.77559 9.11433 33437 ft 436 kts 254°
2026-05-05 11:12 47.77006 9.07001 33713 ft 435 kts 254°
2026-05-05 11:12 47.76457 9.02585 33988 ft 434 kts 254°
2026-05-05 11:12 47.75915 8.98227 34210 ft 433 kts 254°
2026-05-05 11:12 47.75366 8.93837 34426 ft 432 kts 254°
2026-05-05 11:13 47.74814 8.89451 34650 ft 431 kts 255°
2026-05-05 11:13 47.74262 8.85074 34830 ft 431 kts 255°
2026-05-05 11:13 47.73708 8.80690 34891 ft 432 kts 255°
2026-05-05 11:14 47.72593 8.71911 34886 ft 433 kts 255°
2026-05-05 11:14 47.71465 8.63121 34890 ft 433 kts 255°
2026-05-05 11:15 47.70335 8.54337 34883 ft 433 kts 255°
2026-05-05 11:15 47.68984 8.45661 34884 ft 429 kts 245°
2026-05-05 11:16 47.66191 8.37983 34889 ft 421 kts 231°
2026-05-05 11:16 47.62767 8.30934 34886 ft 421 kts 231°
2026-05-05 11:17 47.59346 8.23885 34890 ft 421 kts 231°
2026-05-05 11:17 47.55922 8.16834 34891 ft 422 kts 231°